This demonstration page uses our WeatherBlox Daily Observations layout. Learn more.

Left ArrowRight Arrow

Hourly Observations for April 8, 2017

Temp ( °F °C ) Dew Point ( °F °C ) Humidity (%) Winds ( mph kmh ) Pressure ( in mb ) Visibility ( mi km ) Precip ( " mm )
12:59 am 00:59 Clear 45 7.2 26 -3.3 48 48 NNW 16 26 29.94 1014 10 16 0.00 0.00
1:59 am 01:59 Clear 43 6.1 26 -3.3 51 51 NW 10 17 29.95 1014 10 16 0.00 0.00
2:59 am 02:59 Clear 42 5.6 25 -3.9 51 51 NW 12 19 29.95 1014 10 16 0.00 0.00
3:59 am 03:59 Clear 42 5.6 27 -2.8 55 55 NW 10 17 29.94 1014 10 16 0.00 0.00
4:59 am 04:59 Clear 42 5.6 27 -2.8 55 55 WNW 10 17 29.96 1014 10 16 0.00 0.00
5:59 am 05:59 Clear 41 5 29 -1.7 62 62 WNW 9 15 29.97 1015 10 16 0.00 0.00
6:59 am 06:59 Mostly Sunny 42 5.6 30 -1.1 62 62 W 7 11 30.01 1016 10 16 0.00 0.00
7:59 am 07:59 Mostly Sunny 45 7.2 33 0.6 63 63 W 7 11 30.04 1017 10 16 0.00 0.00
8:59 am 08:59 Mostly Sunny 50 10 25 -3.9 38 38 NW 13 20 30.05 1018 10 16 0.00 0.00
9:59 am 09:59 Sunny 52 11.1 20 -6.7 28 28 NNW 15 24 30.06 1018 10 16 0.00 0.00
10:59 am 10:59 Mostly Sunny 55 12.8 20 -6.7 25 25 NW 12 19 30.06 1018 10 16 0.00 0.00
11:59 am 11:59 Sunny 58 14.4 20 -6.7 23 23 NW 10 17 30.05 1018 10 16 0.00 0.00
12:59 pm 12:59 Sunny 59 15 20 -6.7 22 22 NW 7 11 30.03 1017 10 16 0.00 0.00
1:59 pm 13:59 Sunny 60 15.6 19 -7.2 20 20 W 15 24 30.02 1017 10 16 0.00 0.00
2:59 pm 14:59 Mostly Sunny 61 16.1 22 -5.6 22 22 W 9 15 30.01 1016 10 16 0.00 0.00
3:59 pm 15:59 Mostly Sunny 63 17.2 23 -5 22 22 WNW 12 19 29.99 1016 10 16 0.00 0.00
4:59 pm 16:59 Mostly Sunny 62 16.7 22 -5.6 21 21 W 9 15 29.98 1015 10 16 0.00 0.00
5:59 pm 17:59 Mostly Sunny 62 16.7 23 -5 22 22 W 8 13 29.98 1015 10 16 0.00 0.00
6:59 pm 18:59 Mostly Sunny 61 16.1 28 -2.2 29 29 W 5 7 29.99 1016 10 16 0.00 0.00
7:59 pm 19:59 Mostly Clear 54 12.2 31 -0.6 42 42 Calm 30.00 1016 10 16 0.00 0.00
8:59 pm 20:59 Mostly Clear 50 10 34 1.1 54 54 SSW 3 6 30.03 1017 10 16 0.00 0.00
9:59 pm 21:59 Clear 49 9.4 32 0 52 52 SSW 5 7 30.05 1018 10 16 0.00 0.00
10:59 pm 22:59 Clear 52 11.1 31 -0.6 45 45 SW 6 9 30.06 1018 10 16 0.00 0.00
11:59 pm 23:59 Clear 48 8.9 33 0.6 56 56 SW 5 7 30.09 1019 10 16 0.00 0.00

Powered by AerisWeather